Temperature
18 18 18 17 17 17 17 17 17 17 16 16 16 16 16 16 16 16 15 15 15 15 15 15 15 15 15 15 15 15 14 14 14 14 14 14 14 14 14 14 14 14 14
18 18 18 17 17 17 17 16 16 16 16 16 16 15 15 15 15 15 15 15 15 15 15 15 15 15 14 14 14 14 14 14 14 14 14 14 14 14 14 14 14 14 14
18 18 17 17 17 17 16 16 16 16 16 15 15 15 15 15 15 15 15 14 14 15 15 15 14 14 14 14 14 14 13 13 13 13 13 14 14 14 14 14 14 14 14
18 17 17 17 17 16 16 16 16 16 15 15 15 15 15 15 15 14 14 14 14 14 14 14 14 14 14 14 14 13 13 13 13 13 13 13 13 13 13 13 13 13 13
18 17 17 16 16 16 16 16 15 15 15 15 15 15 15 14 14 14 14 14 14 14 14 14 14 14 14 13 13 13 13 13 13 13 13 13 13 13 13 13 13 13 13
17 17 17 16 16 16 16 15 15 15 15 15 15 15 14 14 14 14 14 14 14 14 14 13 13 13 13 13 13 13 13 13 13 13 12 12 12 12 12 12 12 12 12
17 17 16 16 16 16 15 15 15 15 15 15 14 14 14 14 14 14 13 13 13 13 13 13 13 13 13 13 13 13 13 12 12 12 12 12 12 12 12 12 12 12 12
17 17 16 16 16 15 15 15 15 15 14 14 14 14 14 13 13 13 13 13 13 13 13 13 13 13 13 12 12 12 13 12 12 12 12 12 12 12 12 12 11 11 12
17 16 16 15 15 15 15 15 14 14 14 14 14 14 13 13 13 13 13 13 13 13 12 12 12 12 12 12 12 12 12 12 12 12 12 12 12 12 11 11 11 11 11
16 16 16 15 15 15 15 14 14 14 14 13 13 13 13 13 12 12 12 12 12 12 12 12 12 12 11 11 11 11 12 12 12 12 11 11 11 11 11 11 11 11 11
16 16 15 15 15 14 14 14 14 14 13 13 13 13 12 12 12 12 12 12 12 12 12 12 11 11 11 11 11 11 11 11 11 11 11 11 11 11 11 11 11 11 11
15 15 15 15 14 14 14 14 13 13 13 13 13 12 12 12 12 11 11 11 11 11 11 11 11 11 11 11 11 11 11 11 11 11 11 10 10 10 10 11 11 11 10
15 15 14 14 14 14 13 13 13 13 13 12 12 12 12 11 11 11 11 11 11 11 11 10 10 10 10 10 10 10 10 10 10 10 10 10 10 10 10 10 10 10 10
15 14 14 14 14 13 13 13 13 12 12 12 12 12 11 11 11 11 11 11 11 10 10 10 10 10 10 10 10 10 10 10 9 9 9 10 10 10 10 10 10 10 10
15 14 14 14 13 13 13 12 12 12 12 12 11 11 11 11 11 10 10 10 10 10 10 10 10 10 10 10 9 9 9 9 9 9 9 9 9 9 9 9 9 10 10
14 14 14 13 13 13 13 12 12 12 11 11 11 11 10 10 10 10 10 10 10 10 10 10 9 9 9 9 9 9 9 9 9 9 9 9 9 9 9 9 9 9 9
14 14 13 13 13 13 12 12 12 11 11 11 11 10 10 10 10 10 10 10 10 9 9 9 9 9 8 8 8 8 8 8 8 8 8 8 8 9 8 8 8 8 8
14 14 13 13 13 12 12 12 12 11 11 11 11 10 10 10 10 10 10 10 10 9 9 9 8 8 8 8 8 8 8 8 8 8 8 8 8 8 8 8 8 8 8
14 13 13 13 13 12 12 12 11 11 11 11 11 10 10 10 10 10 9 9 9 9 9 8 8 8 8 8 8 8 8 8 8 8 8 8 8 8 8 8 8 8 8
13 13 13 13 12 12 12 12 11 11 11 10 10 10 10 10 10 9 9 9 9 9 8 8 8 8 8 8 8 8 8 7 7 7 7 7 7 7 7 7 7 7 7
13 13 13 12 12 12 12 11 11 11 11 10 10 10 10 10 9 9 9 9 9 8 8 8 8 8 8 8 8 7 7 7 7 7 7 7 7 7 7 7 7 7 7
13 13 12 12 12 12 11 11 11 11 11 10 10 10 10 9 9 9 9 9 8 8 8 8 8 8 8 7 7 7 7 7 7 7 7 7 7 7 7 7 7 7 7
13 12 12 12 12 11 11 11 11 11 10 10 10 10 10 9 9 9 9 8 8 8 8 8 8 8 7 7 7 7 7 7 6 6 6 6 6 6 6 6 6 6 6
12 12 12 12 12 11 11 11 11 10 10 10 10 10 9 9 9 9 8 8 8 8 8 8 7 7 7 7 7 7 7 6 6 6 6 6 6 6 6 6 6 6 6
12 12 12 12 11 11 11 11 11 10 10 10 10 9 9 9 9 8 8 8 8 8 7 7 7 7 7 7 7 6 6 6 6 6 6 6 6 5 5 5 5 5 5
12 12 12 11 11 11 11 10 10 10 10 9 9 9 9 9 8 8 8 8 8 7 7 7 7 7 7 6 6 6 6 6 6 6 5 5 5 5 5 5 5 5 5
Wind_Speed
4 3 2 2 1 1 0 1 1 1 1 1 1 1 2 2 1 1 1 0 0 1 1 0 0 0 0 0 0 1 1 2 2 2 2 2 2 2 3 2 2 2 3
4 4 3 2 2 1 1 1 1 1 1 1 1 1 1 2 1 1 1 1 1 1 1 1 1 0 0 0 0 0 0 1 2 2 2 2 2 3 2 3 2 2 2
5 4 3 2 2 1 0 1 1 1 1 1 1 1 1 1 1 1 1 2 2 2 2 1 1 0 0 0 0 0 1 0 1 2 2 2 2 2 2 2 3 2 2
4 4 3 2 1 1 1 1 1 1 1 1 2 1 2 1 2 2 1 2 2 2 2 1 1 1 1 1 1 1 1 0 0 1 2 2 2 2 1 2 3 2 2
4 4 3 2 2 2 2 1 2 2 2 2 2 3 3 2 2 2 1 2 2 2 2 2 2 1 1 1 1 1 1 1 1 1 1 1 2 2 2 1 2 3 3
5 4 3 3 2 2 1 2 2 2 2 3 3 3 3 3 5 4 2 1 1 1 2 3 2 2 2 1 1 2 2 2 2 2 2 2 3 3 2 2 2 2 2
4 3 3 3 2 1 1 2 2 2 2 3 3 3 3 4 6 6 5 2 2 2 2 2 3 3 3 2 2 1 1 2 3 3 3 4 3 3 2 2 2 2 3
4 3 3 3 2 2 2 2 1 2 2 2 3 3 3 5 7 6 5 3 3 3 3 2 2 3 4 3 2 2 2 2 2 3 4 4 4 4 4 3 3 2 3
4 3 3 3 3 2 2 1 1 1 2 2 2 3 3 5 7 6 5 3 3 4 4 3 3 3 5 5 2 2 3 3 3 2 2 3 3 3 3 2 2 1 2
4 4 3 3 3 3 2 1 1 1 1 2 3 3 3 3 6 6 5 2 3 4 4 4 5 5 6 5 2 2 3 4 4 4 3 4 3 2 2 3 3 3 2
4 4 3 3 3 3 2 2 2 2 2 3 3 3 3 4 5 6 5 3 2 2 3 4 4 7 7 6 3 2 3 4 3 2 2 3 2 2 2 1 2 3 3
5 4 3 2 2 3 3 2 2 2 2 2 2 3 3 3 4 5 6 4 3 1 2 3 4 7 7 6 4 4 4 3 1 1 2 2 2 3 3 3 2 3 4
5 4 3 3 2 2 3 2 2 2 1 1 1 2 3 3 4 6 6 5 4 2 2 4 5 7 6 5 6 7 5 3 2 1 2 3 2 3 3 2 2 2 2
5 4 3 3 2 2 2 2 2 1 1 0 1 1 2 3 3 3 3 3 3 3 3 4 5 5 4 5 5 5 4 3 2 2 3 3 2 2 2 2 1 2 2
5 4 3 3 2 2 1 1 1 1 2 2 1 1 1 3 4 3 2 2 2 2 2 3 4 4 5 5 5 5 4 4 3 3 3 3 3 2 2 2 1 1 1
5 3 3 2 2 2 2 1 1 0 1 1 1 1 1 3 4 4 3 3 3 3 2 2 3 3 4 4 4 5 4 3 3 3 3 3 3 3 2 2 1 1 1
5 4 3 3 3 2 2 1 0 2 3 2 2 2 2 3 3 3 3 2 2 2 2 2 2 3 3 3 4 4 4 4 3 3 3 3 3 3 2 2 2 1 1
5 5 4 3 3 2 2 2 2 1 1 2 3 3 3 3 3 3 1 2 2 2 1 2 3 3 3 3 3 4 4 4 3 3 3 3 3 3 3 3 2 2 1
5 4 3 3 2 2 2 1 1 1 1 1 2 3 3 3 2 2 1 1 1 2 2 3 3 3 3 3 3 3 3 3 3 3 3 4 3 3 3 3 2 1 1
4 5 5 3 2 2 2 2 1 1 1 1 2 2 1 1 2 2 1 1 1 2 2 3 3 3 3 3 3 3 3 3 3 3 3 4 3 3 3 3 2 1 1
4 4 5 3 2 2 2 2 2 2 2 2 2 2 2 1 1 1 1 2 2 3 3 3 3 3 3 3 3 3 3 3 3 3 3 3 3 3 3 3 2 1 1
4 4 3 3 3 2 2 2 2 2 2 3 2 2 2 1 2 2 2 3 3 2 2 2 2 2 3 3 3 3 3 3 3 3 3 3 3 3 3 2 2 1 1
4 4 3 3 2 2 2 2 2 3 3 3 2 2 2 2 2 3 3 3 2 2 2 2 2 3 3 3 3 3 3 3 3 2 2 3 3 3 3 2 2 1 1
4 4 4 3 3 3 2 2 2 2 2 2 2 2 3 2 2 3 3 2 2 2 2 2 2 4 4 3 3 2 3 3 3 3 3 2 3 3 2 3 2 1 1
4 4 4 3 3 3 3 3 2 2 2 2 2 3 3 2 2 2 2 2 3 2 3 3 3 4 4 4 3 3 4 3 3 2 2 2 2 2 2 2 2 1 1
4 4 3 3 3 3 3 2 2 2 2 2 2 2 2 2 2 2 2 2 2 2 3 3 3 4 4 3 3 3 3 3 3 2 1 1 1 2 2 2 2 1 1
Wind_Direction
154 151 139 114 112 126 305 294 301 352 8 13 345 353 1 9 18 51 12 18 17 323 337 86 283 252 134 43 102 142 161 168 220 285 298 311 311 318 329 332 311 284 280
151 142 144 135 118 107 54 330 356 13 358 346 344 360 353 7 11 8 324 334 319 304 299 293 292 318 39 355 99 200 199 202 205 262 301 311 298 307 320 327 334 317 288
141 139 131 121 121 121 89 3 31 35 13 3 19 9 347 345 349 326 303 307 297 282 275 254 261 177 262 252 212 228 256 201 203 232 280 299 304 317 330 332 336 329 320
139 138 139 136 144 149 100 76 52 64 55 26 11 350 326 326 332 323 319 310 305 300 300 286 257 204 221 204 203 223 220 181 206 245 278 299 296 306 314 317 327 331 323
131 130 137 125 110 94 76 59 52 56 50 34 25 11 358 357 356 348 325 326 326 338 344 330 308 267 199 194 205 209 184 197 229 258 277 296 295 296 301 301 308 313 310
132 139 130 111 99 93 83 69 63 52 46 46 32 24 21 18 14 18 13 335 345 355 340 332 329 325 312 294 243 212 189 195 212 223 253 261 275 277 298 299 304 313 308
135 134 126 125 124 114 100 77 64 56 54 49 32 31 23 11 19 22 29 36 21 1 345 337 338 344 349 330 315 304 273 233 212 215 236 254 258 249 241 273 275 281 276
141 144 144 143 137 105 86 74 55 59 59 53 36 26 21 12 18 20 29 37 28 10 360 350 342 339 348 350 329 321 306 293 264 240 238 251 253 246 229 233 249 269 276
152 155 153 150 139 121 107 85 72 67 51 45 44 34 27 6 12 17 28 28 26 11 3 3 360 348 349 358 353 325 317 312 314 314 280 277 275 251 218 212 227 242 284
162 154 143 143 141 136 135 116 87 96 78 61 47 34 25 7 9 25 34 39 23 3 358 358 2 355 345 349 333 315 310 309 324 333 336 336 330 307 230 214 216 222 251
149 133 127 134 141 131 119 103 98 90 72 57 39 15 9 2 4 19 33 40 16 355 353 351 347 354 353 346 334 307 294 303 311 314 322 332 340 341 330 290 231 222 233
133 129 128 126 127 122 117 97 83 85 75 52 26 1 354 354 1 3 19 31 27 12 332 330 333 344 347 347 352 348 339 341 334 339 338 329 326 320 315 311 285 252 243
133 135 132 119 114 118 126 117 91 87 89 54 22 341 333 343 349 356 0 4 9 8 330 335 340 346 350 357 5 5 5 4 354 338 315 304 299 298 308 320 330 322 297
143 145 138 132 117 98 117 134 135 134 122 72 333 316 319 332 340 344 346 350 357 357 347 347 355 4 11 5 4 9 10 3 351 327 313 310 319 325 324 329 327 340 332
139 137 134 138 138 124 121 158 171 188 182 181 229 253 296 311 306 308 330 341 337 334 354 13 19 16 12 8 4 1 1 2 354 336 327 325 331 335 332 330 324 330 311
138 145 153 152 148 147 145 92 39 77 7 185 193 200 255 272 306 326 332 334 343 10 48 24 7 1 357 354 352 350 350 349 342 335 332 330 325 323 325 333 330 315 315
156 163 164 162 164 169 171 171 326 1 17 15 347 324 294 307 321 323 323 344 14 56 45 357 341 336 336 338 338 339 339 338 338 338 335 332 328 322 322 322 322 326 325
162 168 170 176 177 183 193 191 182 193 324 342 331 318 319 316 323 327 349 53 27 25 341 316 313 315 321 328 332 333 334 340 345 340 336 331 330 328 322 318 313 313 321
165 169 171 172 176 184 188 180 182 196 229 291 323 334 338 343 5 31 83 73 321 309 306 307 307 308 313 319 322 324 327 330 332 334 334 330 326 323 316 314 309 304 303
173 173 167 165 167 172 172 175 188 204 235 269 286 295 327 19 16 4 6 303 289 295 298 300 304 305 306 308 313 318 324 327 328 328 327 324 320 315 310 304 301 298 301
169 174 168 165 179 188 187 196 207 213 230 252 265 267 224 230 265 279 282 277 273 277 284 289 296 303 304 304 308 312 314 318 320 319 316 316 316 316 316 314 313 322 335
171 172 178 186 188 190 199 209 217 225 241 255 273 288 235 248 264 265 269 277 279 275 277 282 293 299 297 296 295 297 302 308 315 315 313 313 315 316 318 322 334 344 353
172 174 178 183 183 184 195 215 225 229 238 246 251 262 263 266 270 269 271 277 283 285 288 291 299 307 306 294 286 283 286 292 293 291 296 302 307 315 319 318 314 326 338
175 176 176 177 176 182 199 219 231 237 243 247 253 257 260 261 269 277 283 289 290 290 293 294 292 296 306 309 299 292 292 298 295 277 267 276 291 303 311 316 313 310 313
169 177 182 185 192 201 209 218 232 245 250 251 257 261 263 258 263 279 288 291 295 298 306 309 307 306 307 308 306 313 325 323 303 290 267 257 276 290 298 303 302 303 294
175 180 182 183 192 204 213 224 236 244 254 259 260 261 260 258 262 276 290 297 302 302 306 311 317 315 312 307 308 319 322 319 310 296 271 251 275 294 305 302 300 311 318
Height
1499 1500 1501 1501 1502 1502 1501 1501 1501 1500 1499 1499 1498 1498 1497 1496 1495 1495 1494 1494 1493 1492 1491 1491 1490 1490 1490 1490 1489 1489 1489 1489 1489 1489 1489 1489 1489 1488 1488 1487 1486 1486 1485
1498 1499 1500 1500 1501 1500 1500 1500 1500 1499 1499 1498 1497 1497 1496 1495 1494 1494 1493 1492 1491 1490 1490 1489 1489 1488 1488 1487 1487 1487 1487 1487 1487 1486 1486 1487 1486 1486 1485 1484 1484 1483 1483
1497 1498 1499 1499 1500 1500 1499 1499 1498 1498 1497 1497 1496 1496 1495 1494 1493 1492 1492 1491 1490 1489 1488 1487 1486 1486 1485 1485 1485 1485 1485 1485 1485 1484 1484 1484 1483 1483 1482 1482 1481 1480 1480
1496 1497 1497 1498 1498 1499 1498 1498 1497 1497 1496 1496 1495 1495 1494 1493 1492 1491 1490 1489 1488 1487 1486 1485 1485 1484 1484 1484 1483 1483 1483 1483 1483 1482 1482 1481 1481 1480 1480 1479 1478 1478 1478
1496 1496 1497 1497 1498 1498 1498 1497 1496 1496 1495 1495 1494 1493 1492 1491 1490 1489 1488 1487 1486 1485 1484 1484 1483 1483 1482 1482 1481 1481 1481 1481 1480 1480 1479 1479 1478 1478 1477 1476 1475 1475 1475
1495 1495 1496 1496 1497 1497 1497 1496 1495 1495 1494 1493 1493 1492 1491 1490 1489 1488 1487 1485 1484 1483 1482 1482 1481 1481 1480 1480 1479 1479 1479 1479 1478 1478 1477 1476 1475 1475 1474 1474 1473 1472 1472
1494 1495 1495 1496 1496 1496 1496 1495 1495 1494 1493 1492 1492 1491 1490 1489 1488 1487 1486 1484 1483 1482 1481 1480 1479 1479 1478 1478 1477 1477 1477 1477 1476 1476 1475 1474 1473 1473 1472 1471 1471 1470 1470
1493 1494 1495 1495 1495 1495 1495 1495 1494 1493 1492 1491 1491 1490 1488 1488 1487 1486 1484 1483 1482 1481 1480 1478 1478 1477 1476 1476 1475 1475 1474 1474 1473 1473 1472 1472 1471 1470 1469 1469 1468 1468 1467
1492 1493 1494 1494 1494 1494 1494 1494 1493 1493 1492 1491 1490 1489 1488 1487 1486 1485 1484 1482 1481 1480 1479 1477 1476 1475 1474 1473 1473 1472 1471 1471 1470 1470 1469 1468 1468 1467 1467 1466 1466 1465 1464
1491 1492 1493 1493 1493 1493 1493 1493 1492 1492 1491 1490 1489 1488 1487 1486 1485 1484 1483 1481 1480 1479 1478 1476 1475 1474 1473 1471 1470 1469 1468 1467 1467 1466 1466 1465 1465 1464 1464 1464 1463 1463 1462
1490 1491 1492 1492 1492 1492 1492 1492 1491 1491 1490 1489 1488 1487 1486 1485 1484 1483 1481 1480 1479 1478 1477 1475 1474 1473 1471 1470 1468 1467 1465 1465 1464 1463 1462 1462 1461 1461 1461 1461 1461 1461 1460
1489 1490 1491 1491 1492 1492 1492 1491 1491 1490 1489 1488 1487 1486 1485 1484 1483 1482 1481 1480 1478 1477 1476 1474 1473 1472 1470 1468 1467 1465 1464 1463 1462 1460 1459 1459 1458 1458 1458 1458 1459 1458 1458
1488 1489 1490 1490 1491 1491 1491 1490 1490 1489 1488 1487 1487 1486 1485 1484 1483 1482 1480 1479 1478 1476 1475 1473 1472 1470 1468 1467 1465 1464 1462 1460 1459 1458 1457 1456 1456 1456 1456 1456 1456 1456 1455
1487 1488 1489 1489 1490 1490 1490 1489 1489 1488 1487 1486 1485 1485 1484 1483 1482 1481 1479 1478 1477 1475 1474 1472 1470 1469 1467 1465 1464 1462 1460 1459 1457 1456 1455 1455 1454 1453 1453 1453 1453 1452 1452
1485 1487 1488 1488 1488 1489 1489 1488 1488 1487 1486 1486 1485 1484 1483 1482 1481 1480 1478 1477 1475 1474 1472 1471 1469 1467 1465 1464 1462 1460 1459 1457 1456 1455 1454 1453 1452 1451 1451 1450 1450 1449 1449
1484 1486 1487 1487 1487 1488 1488 1487 1487 1486 1486 1485 1484 1483 1482 1481 1480 1479 1478 1476 1475 1473 1472 1469 1467 1466 1464 1462 1461 1459 1458 1456 1455 1454 1452 1451 1450 1449 1448 1448 1447 1447 1446
1484 1485 1486 1486 1486 1486 1486 1486 1485 1485 1485 1484 1483 1482 1481 1480 1479 1478 1477 1475 1474 1472 1470 1468 1467 1465 1464 1462 1460 1459 1457 1455 1454 1452 1451 1450 1449 1447 1446 1445 1445 1444 1444
1483 1484 1485 1485 1485 1485 1485 1484 1484 1483 1483 1482 1482 1481 1480 1479 1478 1477 1475 1474 1472 1471 1469 1468 1466 1465 1463 1462 1460 1458 1456 1454 1453 1451 1450 1448 1447 1446 1445 1444 1443 1442 1442
1482 1482 1483 1483 1484 1484 1484 1483 1483 1482 1481 1480 1480 1479 1478 1478 1477 1475 1474 1472 1470 1469 1468 1467 1466 1464 1463 1461 1459 1457 1456 1454 1452 1450 1449 1447 1445 1444 1443 1442 1441 1440 1440
1480 1481 1481 1482 1482 1482 1482 1482 1481 1481 1480 1479 1478 1478 1477 1476 1474 1473 1472 1470 1469 1468 1467 1466 1464 1463 1461 1460 1458 1456 1454 1453 1451 1449 1448 1446 1444 1443 1442 1440 1440 1439 1438
1478 1479 1480 1480 1480 1480 1480 1480 1480 1479 1479 1478 1477 1477 1476 1474 1473 1472 1471 1469 1468 1466 1465 1464 1463 1461 1460 1458 1456 1455 1453 1451 1450 1448 1446 1444 1443 1442 1440 1439 1438 1437 1437
1476 1477 1478 1478 1478 1479 1478 1478 1478 1478 1477 1477 1476 1475 1474 1473 1471 1470 1469 1468 1466 1465 1463 1462 1461 1459 1458 1456 1455 1453 1451 1450 1448 1446 1445 1443 1441 1440 1439 1437 1436 1436 1435
1474 1475 1476 1476 1476 1477 1477 1477 1476 1476 1475 1474 1474 1473 1472 1471 1469 1468 1467 1466 1464 1463 1461 1460 1459 1457 1456 1454 1453 1451 1449 1448 1446 1444 1443 1441 1440 1438 1437 1436 1435 1434 1434
1472 1473 1474 1474 1474 1474 1475 1475 1474 1474 1473 1472 1471 1470 1469 1468 1467 1466 1465 1463 1462 1461 1459 1458 1457 1455 1453 1452 1450 1449 1447 1446 1444 1442 1441 1439 1438 1436 1435 1434 1433 1433 1433
1470 1471 1471 1472 1472 1472 1472 1472 1472 1471 1471 1470 1469 1468 1467 1465 1464 1463 1462 1461 1459 1458 1457 1455 1454 1452 1450 1449 1448 1446 1445 1443 1442 1440 1439 1437 1436 1435 1434 1433 1432 1432 1432
1468 1469 1469 1469 1470 1470 1469 1469 1469 1469 1468 1467 1466 1465 1464 1463 1461 1460 1459 1458 1456 1455 1454 1452 1451 1449 1447 1446 1445 1443 1442 1441 1439 1438 1436 1435 1434 1433 1432 1432 1431 1431 1430